User: anonymous   Login
Location: Caltech
(34.1382°N, 118.1253°W)
Time: 08:18:43
(UTC-07:00)
Language:

CZ-2C R/B - Orbit

View from above orbital plane
View from above orbital plane
View from above satellite
View from above satellite

Ground track
Ground track

The orbit data is extracted from the following two-line orbital elements,

1 36089U 09061B   17229.03664041  .00000026  00000-0  17895-4 0  9999
2 36089  98.0541 228.1422 0081197 217.6161 174.0783 14.49674280410523
Epoch (UTC): 17 August 2017 00:52:45
Eccentricity: 0.0081197
inclination: 98.0541°
perigee height: 669 km
apogee height: 784 km
right ascension of ascending node: 228.1422°
argument of perigee: 217.6161°
revolutions per day: 14.49674280
mean anomaly at epoch: 174.0783°
orbit number at epoch: 41052

The dashed part of the orbit path shows where the satellite is in the earth's shadow,  

DLR